CZ-3B DEB, 39335

Orbit data source: Space-Track

CZ-3B DEB, 39335 is space debris in HEO originally from a launch on Sat, 04 Sep 2010 UTC launched from the Xichang Space Center, China (XSC). Debris objects in space refer to the collection of defunct objects orbiting the Earth. Examples of debris include non-operational satellites, rocket bodies, and fragments generated from explosions, collisions, or faulty payload assembly.

Loading next visibility...
Identifier
39335, 2010-042G
Orbit
HEO
Country
Flag of CNCN / PRC
Related business
Manufacturer
CALT
Mission
Spacecraft
Bus & Motor
Unknown
Mass
Unknown
Launch date (UTC)
2010-09-04 (16 years ago)
Launch vehicle
Unknown
Launch site
Xichang Space Center, China (XSC)
Object type
Payload
Rocket body
Debris
Shape & HBR
Unknown shape, 0.2 m
Radar Cross Section
Medium (>0.1 m² and <1 m²)

Expand to show TLE details & history
Last TLE update: 4 days ago

TLE from 4 days ago
0 CZ-3B DEB
1 39335U 10042G   26068.43215693 -.00001043  00000-0 -68651-2 0  9993
2 39335  27.8053  62.8245 7361795 280.1416 111.9253  1.97587005 82089
Epoch: 2026-03-09T10:22Z
TLE epoch observation values (Epoch: 2026-03-09T10:22:18.358Z)
Latitude
27.63567°
Longitude
-176.91189°
Altitude
35,447.548 km
Speed
2.05 km/s
True Right ascension
09h 43m 09s
True Declination
27° 36' 42"
Sunlit
Object was in daylight at epoch
Visualization orbit readout
Latitude
Unknown
Longitude
Unknown
Altitude
Unknown
Speed
Unknown
Apparent Right ascension
Unknown
Apparent Declination
Unknown
Sunlit
N/A
Visualization observer readout
Local Sidereal Time
00:17:03
Azimuth
Unknown
Elevation
Unknown
Doppler factor
Unknown
Orbital elements
Apogee altitude
40,203.588 km
Perigee altitude
700.171 km
Semi-major axis
26,830.017 km
Eccentricity
0.73618
Inclination
27.8053°
RAAN
62.8245°
Arg. of periapsis
280.1416°
True anomaly
163.58244°
Mean anomaly
111.9253°
Eccentric anomaly
139.38393°
Mean motion
0.49387 °/min
Orbital period
728.94 mins
BSTAR
-0.0068651
Loading maneuver chart data...
Computing Atmospheric mass density...
Loading historical data...
Loading historical data...
Loading historical data...
Loading historical data...
Loading historical data...
Loading historical data...
Loading historical data...

Documentation

Showing up to 5 results
|